DW4248 Weather Reports


Display with metric or nautical units.
time (UTC)temp
F
wind
direction
speed
MPH
gust
MPH
rain 1hr
in
rain 24hr
in
rain mn
in
humidity
%
barometer
mb
20260905204503 99 334 3.0 8.0 0.00 0.00 0.00 44 1011.8
20260905203603 100 327 2.0 3.0 0.00 0.00 0.00 42 1011.7
20260905202703 101 332 2.0 8.0 0.00 0.00 0.00 38 1011.5
20260905201803 102 310 1.0 5.0 0.00 0.00 0.00 40 1011.5
20260905200903 101 331 1.0 5.0 0.00 0.00 0.00 43 1011.7
20260905200024 101 332 1.0 3.0 0.00 0.00 0.00 42 1011.8
20260905195424 101 333 1.0 3.0 0.00 0.00 0.00 42 1011.9
20260905194524 100 329 1.0 5.0 0.00 0.00 0.00 41 1012.0
20260905193624 100 335 2.0 5.0 0.00 0.00 0.00 41 1012.2
20260905192724 100 333 2.0 5.0 0.00 0.00 0.00 42 1012.4
20260905191803 100 338 1.0 4.0 0.00 0.00 0.00 41 1012.4
20260905190903 100 328 1.0 6.0 0.00 0.00 0.00 43 1012.4
20260905190003 100 327 1.0 5.0 0.00 0.00 0.00 43 1012.6
20260905185403 100 329 1.0 6.0 0.00 0.00 0.00 43 1012.6
20260905184503 100 333 1.0 5.0 0.00 0.00 0.00 44 1012.7
20260905183603 99 334 2.0 5.0 0.00 0.00 0.00 44 1012.9
20260905182703 99 334 2.0 5.0 0.00 0.00 0.00 45 1012.9
20260905181803 99 330 1.0 4.0 0.00 0.00 0.00 46 1013.0
20260905180903 98 335 1.0 3.0 0.00 0.00 0.00 48 1013.1
20260905180003 98 340 2.0 5.0 0.00 0.00 0.00 48 1013.2
20260905175403 98 333 1.0 5.0 0.00 0.00 0.00 47 1013.2
20260905174503 98 332 0.0 3.0 0.00 0.00 0.00 49 1013.3
20260905173603 97 332 2.0 4.0 0.00 0.00 0.00 50 1013.3
20260905172703 96 331 1.0 4.0 0.00 0.00 0.00 51 1013.4
20260905171803 96 341 1.0 4.0 0.00 0.00 0.00 51 1013.4
20260905170903 95 330 1.0 4.0 0.00 0.00 0.00 56 1013.7
20260905170003 95 356 0.0 2.0 0.00 0.00 0.00 58 1013.8
20260905165403 94 331 1.0 4.0 0.00 0.00 0.00 58 1013.9
20260905164503 94 327 0.0 2.0 0.00 0.00 0.00 58 1013.9
20260905163603 93 328 1.0 4.0 0.00 0.00 0.00 59 1013.9
20260905162724 93 328 1.0 4.0 0.00 0.00 0.00 60 1014.1
20260905161824 92 342 0.0 3.0 0.00 0.00 0.00 61 1014.1
20260905160924 92 323 1.0 3.0 0.00 0.00 0.00 60 1014.3
20260905160024 91 333 1.0 2.0 0.00 0.00 0.00 62 1014.1
20260905155424 91 354 1.0 3.0 0.00 0.00 0.00 62 1014.1
20260905154503 90 345 0.0 3.0 0.00 0.00 0.00 63 1014.2
20260905153603 89 338 1.0 4.0 0.00 0.00 0.00 65 1014.2
20260905152703 89 336 1.0 4.0 0.00 0.00 0.00 64 1014.2
20260905151803 89 341 0.0 3.0 0.00 0.00 0.00 65 1014.3
20260905150903 88 328 1.0 5.0 0.00 0.00 0.00 65 1014.3
20260905150003 88 330 1.0 5.0 0.00 0.00 0.00 65 1014.3
20260905145403 88 332 1.0 3.0 0.00 0.00 0.00 67 1014.2
20260905144503 87 342 1.0 3.0 0.00 0.00 0.00 68 1014.1
20260905143603 86 338 1.0 4.0 0.00 0.00 0.00 69 1014.1
20260905142703 86 338 0.0 3.0 0.00 0.00 0.00 69 1014.1
20260905141803 86 305 0.0 3.0 0.00 0.00 0.00 70 1014.1
20260905140903 85 204 0.0 3.0 0.00 0.00 0.00 71 1014.1
20260905140004 84 338 1.0 7.0 0.00 0.00 0.00 74 1014.2
20260905135403 84 339 2.0 7.0 0.00 0.00 0.00 74 1014.1
20260905134503 84 337 1.0 4.0 0.00 0.00 0.00 75 1014.1
20260905133603 83 327 0.0 2.0 0.00 0.00 0.00 76 1014.0
20260905132703 83 324 0.0 1.0 0.00 0.00 0.00 77 1014.0
20260905131803 82 0 0.0 1.0 0.00 0.00 0.00 77 1013.9
20260905130903 82 0 0.0 0.0 0.00 0.00 0.00 79 1013.9
20260905130004 81 0 0.0 0.0 0.00 0.00 0.00 78 1013.7
20260905125403 81 0 0.0 0.0 0.00 0.00 0.00 79 1013.7
20260905124503 81 0 0.0 0.0 0.00 0.00 0.00 79 1013.6
20260905123603 80 0 0.0 0.0 0.00 0.00 0.00 80 1013.6
20260905122703 80 0 0.0 0.0 0.00 0.00 0.00 80 1013.5
20260905121803 80 0 0.0 1.0 0.00 0.00 0.00 81 1013.5
20260905120903 80 0 0.0 1.0 0.00 0.00 0.00 82 1013.4
20260905120003 80 0 0.0 0.0 0.00 0.00 0.00 82 1013.3
20260905115403 79 0 0.0 0.0 0.00 0.00 0.00 81 1013.3
20260905114503 79 0 0.0 1.0 0.00 0.00 0.00 81 1013.2
20260905113603 79 0 0.0 1.0 0.00 0.00 0.00 82 1013.2
20260905112703 80 0 0.0 0.0 0.00 0.00 0.00 82 1013.2
20260905111803 80 0 0.0 0.0 0.00 0.00 0.00 81 1013.0
20260905110903 80 0 0.0 0.0 0.00 0.00 0.00 80 1012.9
20260905110003 80 218 0.0 1.0 0.00 0.00 0.00 80 1012.8
20260905105403 80 219 0.0 1.0 0.00 0.00 0.00 80 1012.9
20260905104503 80 0 0.0 1.0 0.00 0.00 0.00 80 1013.0
20260905103603 80 248 0.0 1.0 0.00 0.00 0.00 81 1013.0
20260905102703 80 0 0.0 0.0 0.00 0.00 0.00 81 1013.0
20260905101803 79 0 0.0 0.0 0.00 0.00 0.00 83 1013.1
20260905100903 79 0 0.0 0.0 0.00 0.00 0.00 84 1013.1
20260905100003 79 0 0.0 0.0 0.00 0.00 0.00 84 1013.1
20260905095403 79 0 0.0 0.0 0.00 0.00 0.00 83 1013.0
20260905094503 79 0 0.0 0.0 0.00 0.00 0.00 83 1012.9
20260905093603 80 0 0.0 0.0 0.00 0.00 0.00 83 1012.9
20260905092705 80 0 0.0 0.0 0.00 0.00 0.00 82 1013.0
20260905091803 80 0 0.0 0.0 0.00 0.00 0.00 81 1013.0
20260905090903 81 0 0.0 0.0 0.00 0.00 0.00 81 1013.0
20260905090003 81 0 0.0 0.0 0.00 0.00 0.00 80 1013.1
20260905085403 81 0 0.0 0.0 0.00 0.00 0.00 79 1013.1
20260905084503 82 0 0.0 0.0 0.00 0.00 0.00 77 1013.1
20260905083624 82 0 0.0 0.0 0.00 0.00 0.00 77 1013.1
20260905082724 82 0 0.0 0.0 0.00 0.00 0.00 76 1013.1
20260905081824 83 0 0.0 0.0 0.00 0.00 0.00 76 1013.3
20260905080924 83 0 0.0 0.0 0.00 0.00 0.00 75 1013.3
20260905080024 83 253 0.0 1.0 0.00 0.00 0.00 75 1013.4
20260905075403 83 0 0.0 0.0 0.00 0.00 0.00 76 1013.4
20260905074503 83 0 0.0 0.0 0.00 0.00 0.00 74 1013.4
20260905073603 83 0 0.0 0.0 0.00 0.00 0.00 74 1013.4
20260905072703 83 0 0.0 0.0 0.00 0.00 0.00 74 1013.5
20260905071803 84 138 0.0 1.0 0.00 0.00 0.00 74 1013.5
20260905070924 83 137 0.0 1.0 0.00 0.00 0.00 74 1013.4
20260905070024 82 124 0.0 1.0 0.00 0.00 0.00 76 1013.5
20260905065424 82 0 0.0 0.0 0.00 0.00 0.00 77 1013.5
20260905064524 82 0 0.0 0.0 0.00 0.00 0.00 77 1013.4
20260905063624 83 0 0.0 0.0 0.00 0.00 0.00 76 1013.5
20260905062703 83 0 0.0 0.0 0.00 0.00 0.00 76 1013.6
20260905061803 83 0 0.0 0.0 0.00 0.00 0.00 76 1013.5
20260905060903 83 0 0.0 0.0 0.00 0.00 0.00 74 1013.5
20260905060003 84 0 0.0 0.0 0.00 0.00 0.00 74 1013.6
20260905055403 84 0 0.0 0.0 0.00 0.00 0.00 74 1013.6
20260905054503 84 0 0.0 1.0 0.00 0.00 0.00 72 1013.6
20260905053603 84 117 0.0 1.0 0.00 0.00 0.00 72 1013.6
20260905052703 83 126 0.0 1.0 0.00 0.00 0.00 74 1013.6
20260905051803 83 0 0.0 0.0 0.00 0.00 0.00 76 1013.6
20260905050903 83 0 0.0 0.0 0.00 0.00 0.00 75 1013.6
20260905050005 84 0 0.0 0.0 0.00 0.00 0.00 75 1013.6
20260905045403 84 0 0.0 0.0 0.00 0.00 0.00 75 1013.6
20260905044503 84 138 0.0 1.0 0.00 0.00 0.00 73 1013.5
20260905043603 85 0 0.0 0.0 0.00 0.00 0.00 72 1013.5
20260905042703 85 0 0.0 0.0 0.00 0.00 0.00 72 1013.5
20260905041803 85 0 0.0 0.0 0.00 0.00 0.00 72 1013.5
20260905040903 85 0 0.0 0.0 0.00 0.00 0.00 72 1013.4
20260905040003 85 135 0.0 1.0 0.00 0.00 0.00 73 1013.4
20260905035403 84 131 0.0 1.0 0.00 0.00 0.00 74 1013.5
20260905034503 84 0 0.0 0.0 0.00 0.00 0.00 76 1013.5
20260905033603 84 0 0.0 0.0 0.00 0.00 0.00 75 1013.5
20260905032703 84 0 0.0 0.0 0.00 0.00 0.00 73 1013.5
20260905031803 84 0 0.0 0.0 0.00 0.00 0.00 73 1013.5
20260905030903 85 0 0.0 0.0 0.00 0.00 0.00 73 1013.5
20260905030004 85 0 0.0 0.0 0.00 0.00 0.00 72 1013.5
20260905025403 85 0 0.0 0.0 0.00 0.00 0.00 71 1013.5
20260905024503 85 0 0.0 0.0 0.00 0.00 0.00 71 1013.4
20260905023603 86 0 0.0 0.0 0.00 0.00 0.00 70 1013.3
20260905022703 86 0 0.0 0.0 0.00 0.00 0.00 70 1013.2
20260905021803 86 0 0.0 0.0 0.00 0.00 0.00 69 1013.2
20260905020903 87 0 0.0 0.0 0.00 0.00 0.00 67 1013.1
20260905020003 87 0 0.0 0.0 0.00 0.00 0.00 67 1012.9
20260905015403 87 0 0.0 0.0 0.00 0.00 0.00 67 1012.9
20260905014503 88 0 0.0 0.0 0.00 0.00 0.00 66 1012.8
20260905013603 88 0 0.0 0.0 0.00 0.00 0.00 65 1012.7
20260905012703 88 0 0.0 0.0 0.00 0.00 0.00 65 1012.7
20260905011803 89 0 0.0 0.0 0.00 0.00 0.00 63 1012.5
20260905010903 89 0 0.0 0.0 0.00 0.00 0.00 62 1012.5
20260905010003 90 0 0.0 0.0 0.00 0.00 0.00 61 1012.5
20260905005403 90 0 0.0 0.0 0.00 0.00 0.00 60 1012.4
20260905004524 91 0 0.0 0.0 0.00 0.00 0.00 59 1012.5
20260905003624 92 0 0.0 0.0 0.00 0.00 0.00 57 1012.5
20260905002724 93 0 0.0 0.0 0.00 0.00 0.00 56 1012.4
20260905001824 93 350 0.0 1.0 0.00 0.00 0.00 55 1012.4
20260905000924 94 350 0.0 1.0 0.00 0.00 0.00 55 1012.4
20260905000003 95 350 0.0 1.0 0.00 0.00 0.00 53 1012.4
20260904235403 95 352 0.0 2.0 0.00 0.00 0.00 51 1012.4
20260904234503 96 329 1.0 2.0 0.00 0.00 0.00 50 1012.3
20260904233603 96 337 0.0 2.0 0.00 0.00 0.00 51 1012.2
20260904232703 96 331 0.0 1.0 0.00 0.00 0.00 48 1012.2
20260904231803 97 323 1.0 3.0 0.00 0.00 0.00 47 1012.2
20260904230903 97 338 1.0 3.0 0.00 0.00 0.00 45 1012.2
20260904230003 98 323 0.0 4.0 0.00 0.00 0.00 44 1012.2
20260904225403 98 328 0.0 4.0 0.00 0.00 0.00 46 1012.1
20260904224503 98 323 0.0 3.0 0.00 0.00 0.00 44 1012.2
20260904223603 98 339 2.0 5.0 0.00 0.00 0.00 43 1012.2
20260904222703 98 334 2.0 5.0 0.00 0.00 0.00 44 1012.2
20260904221803 98 327 0.0 3.0 0.00 0.00 0.00 41 1012.3
20260904220903 98 336 1.0 4.0 0.00 0.00 0.00 42 1012.3
20260904220003 99 257 1.0 4.0 0.00 0.00 0.00 43 1012.4
20260904215403 98 340 1.0 4.0 0.00 0.00 0.00 42 1012.5
20260904214503 98 338 2.0 8.0 0.00 0.00 0.00 41 1012.6
20260904213603 98 338 2.0 8.0 0.00 0.00 0.00 41 1012.7
20260904212703 99 303 1.0 3.0 0.00 0.00 0.00 41 1012.8
20260904211803 99 320 1.0 7.0 0.00 0.00 0.00 43 1012.9
20260904210903 99 336 1.0 5.0 0.00 0.00 0.00 41 1013.0
20260904210004 100 335 1.0 5.0 0.00 0.00 0.00 40 1013.1
20260904205403 100 108 0.0 2.0 0.00 0.00 0.00 42 1013.2